Location: Wald
(31.7579°N, 86.6655°W)
Time: 11:37:54
(UTC+00:00)

Tsikada Rocket - Pass Details

Date: 14 July 2020
Orbit: 959 x 1008 km, 82.9° (Epoch: 08 August)

Event Time Altitude Azimuth Distance (km) Brightness Sun altitude
Rises 08:34:38 0° 346° (NNW) 3,741 7.5 -24.1°
Reaches altitude 10° 08:37:17 10° 340° (NNW) 2,789 6.7 -23.7°
Maximum altitude 08:43:18 45° 270° (W) 1,350 4.4 -22.8°
Enters shadow 08:44:16 42° 246° (WSW) 1,404 4.4 -22.7°
